Change the Weather History Date:

Thursday, March 22, 2012

  Actual Average Record
Temperature  
Mean Temperature 49 °F 38 °F  
Max Temperature 68 °F 50 °F 71 °F (1910)
Min Temperature 30 °F 26 °F -12 °F (1912)
Degree Days  
Heating Degree Days 16 27  
Month to date heating degree days 518 680  
Since 1 July heating degree days 5861 6384  
Cooling Degree Days 0 0  
Month to date cooling degree days 0 0  
Year to date cooling degree days 0 0  
Moisture  
Dew Point 19 °F    
Average Humidity 36    
Maximum Humidity 59    
Minimum Humidity 13    
Precipitation  
Precipitation 0.00 in 0.05 in 0.84 in (1936)
Month to date precipitation 0.36 0.75  
Year to date precipitation 1.67 1.74  
Snow  
Snow 0.00 in 0.60 in - ()
Month to date snowfall 7.5 10.7  
Since 1 July snowfall 59.2 64.3  
Snow Depth 0.00 in    
Sea Level Pressure  
Sea Level Pressure 29.89 in    
Wind  
Wind Speed 4 mph (SSE)    
Max Wind Speed 10 mph    
Max Gust Speed -    
Visibility 10 miles    
Events      
T = Trace of Precipitation, MM = Missing Value Source: NWS Daily Summary

Daily Weather History Graph

Daily Weather History Graph

Search for Another Location

Airport or City:

Trip Planner

Search our weather history database for the weather conditions in past years. The results will help you decide how hot, cold, wet, or windy it might be!

Date:

Astronomy

Mar. 22, 2012 Rise Set
Actual Time 7:13 AM MDT 7:30 PM MDT
Civil Twilight 6:45 AM MDT 7:58 PM MDT
Nautical Twilight 6:12 AM MDT 8:31 PM MDT
Astronomical Twilight 5:38 AM MDT 9:05 PM MDT
Moon 6:53 AM MDT (3/22) 8:00 PM MDT (3/22)
Length of Visible Light 13h 13m
Length of Day
12h 16m
New Moon, 0% of the Moon is Illuminated
Mar 22
New Moon
Mar 30
First Quarter
Apr 6
Full
Apr 13
Last Quarter
Apr 21
New

Hourly Weather History & Observations

Time (MDT) Temp. Windchill Dew Point Humidity Pressure Visibility Wind Dir Wind Speed Gust Speed Precip Events Conditions
12:53 AM 39.0 °F - 21.0 °F 49% 29.97 in 10.0 mi Calm Calm - N/A   Clear
1:53 AM 37.9 °F 35.5 °F 21.0 °F 51% 29.96 in 10.0 mi WNW 3.5 mph - N/A   Clear
2:53 AM 36.0 °F - 21.0 °F 55% 29.96 in 10.0 mi Calm Calm - N/A   Clear
3:53 AM 37.9 °F - 19.9 °F 48% 29.94 in 10.0 mi Calm Calm - N/A   Clear
4:53 AM 36.0 °F - 19.9 °F 52% 29.93 in 10.0 mi Calm Calm - N/A   Clear
5:53 AM 33.1 °F - 18.0 °F 54% 29.95 in 10.0 mi Calm Calm - N/A   Clear
6:53 AM 30.0 °F 24.1 °F 18.0 °F 61% 29.98 in 10.0 mi NW 5.8 mph - N/A   Clear
7:53 AM 36.0 °F 28.5 °F 14.0 °F 41% 29.99 in 10.0 mi West 10.4 mph - N/A   Clear
8:53 AM 36.0 °F 30.3 °F 23.0 °F 59% 29.99 in 10.0 mi ESE 6.9 mph - N/A   Clear
9:53 AM 46.9 °F - 24.1 °F 41% 29.94 in 10.0 mi East 8.1 mph - N/A   Clear
10:53 AM 54.0 °F - 19.9 °F 26% 29.92 in 10.0 mi ESE 8.1 mph - N/A   Clear
11:53 AM 57.9 °F - 19.9 °F 23% 29.90 in 10.0 mi ESE 10.4 mph - N/A   Clear
12:53 PM 59.0 °F - 19.0 °F 21% 29.87 in 10.0 mi Calm Calm - N/A   Clear
1:53 PM 61.0 °F - 19.0 °F 20% 29.84 in 10.0 mi NW 3.5 mph - N/A   Clear
2:53 PM 63.0 °F - 17.1 °F 17% 29.81 in 10.0 mi SE 3.5 mph - N/A   Clear
3:53 PM 66.0 °F - 16.0 °F 15% 29.79 in 10.0 mi Variable 3.5 mph - N/A   Clear
4:53 PM 66.0 °F - 15.1 °F 14% 29.78 in 10.0 mi Calm Calm - N/A   Clear
5:53 PM 66.0 °F - 14.0 °F 13% 29.79 in 10.0 mi NNE 3.5 mph - N/A   Clear
6:53 PM 64.0 °F - 12.9 °F 14% 29.82 in 10.0 mi SE 4.6 mph - N/A   Clear
7:53 PM 55.0 °F - 19.0 °F 24% 29.84 in 10.0 mi WSW 9.2 mph - N/A   Clear
8:53 PM 52.0 °F - 19.9 °F 28% 29.88 in 10.0 mi West 6.9 mph - N/A   Clear
9:53 PM 50.0 °F - 18.0 °F 28% 29.86 in 10.0 mi South 3.5 mph - N/A   Clear
10:53 PM 46.9 °F - 19.0 °F 33% 29.84 in 10.0 mi Calm Calm - N/A   Clear
11:53 PM 48.9 °F - 19.0 °F 31% 29.82 in 10.0 mi Calm Calm - N/A   Clear